#timestamp,LO_Frequency,Hit,StdDev 
1577577615.1,286047000.3,N
1577577635.9,286047002.6,N
1577577655.7,286047001.5,N
1577577675.5,286047002.5,N
1577577695.4,286047003.3,N
1577577715.2,286047000.0,N
1577577735.1,286047000.9,N
1577577736.0,286047000.9,N
1577577755.8,286046999.5,N
1577577775.6,286046997.2,N
1577577795.5,286046998.5,N
1577577815.3,286046998.8,N
1577577835.2,286047000.6,N
1577577855.9,286046999.0,N
1577577875.7,286046997.7,N
1577577895.6,286046998.8,N
1577577915.4,286047002.1,N
1577577935.2,286047004.3,N
1577577955.1,286047002.1,N
1577577956.0,286047002.1,N
1577577975.8,286047004.4,N
1577577995.7,286047003.9,N
1577578045.5,286047008.3,E
1577578055.5,286047004.3,N
1577578075.3,286046999.2,P
1577578095.1,286046999.0,N
1577578115.9,286046996.6,N
1577578135.7,286046998.0,N
1577578155.5,286046997.7,N
1577578175.4,286046996.6,N
1577578195.2,286047000.4,N
1577578215.1,286046999.2,N
1577578216.0,286046999.2,N
1577578235.8,286046995.6,N
1577578255.6,286046999.4,N
1577578275.5,286046999.6,N
1577578295.3,286046996.1,N
1577578315.2,286046993.5,Y
1577578335.9,286046991.8,P
1577578355.7,286046993.3,N
1577578375.6,286046993.5,N
1577578395.4,286046995.6,N
1577578415.2,286046997.0,N
1577578435.1,286046998.0,N
1577578436.0,286046998.0,N
1577578455.8,286046996.0,N
1577578475.7,286046996.0,N
1577578495.5,286046993.8,N
1577578515.3,286046995.8,N
1577578535.2,286046995.9,N
1577578555.0,286046993.5,Y
1577578555.9,286046993.5,P
1577578575.8,286046999.1,N
1577578595.6,286046999.4,N
1577578615.4,286047000.3,N
1577578635.3,286047002.7,N
1577578655.1,286047004.1,N
1577578675.8,286047005.4,N
1577578695.7,286047004.5,N
1577578715.5,286047004.9,N
1577578735.4,286047001.7,N
1577578755.2,286047003.9,N
1577578775.0,286047002.5,N
1577578775.9,286047002.5,N
1577578795.8,286047000.5,N
1577578815.6,286047000.3,N
1577578835.4,286047002.8,N
1577578855.3,286047002.0,N
1577578875.1,286047000.3,N
1577578895.9,286046998.1,N
1577578915.7,286046999.3,N
1577578935.5,286046999.2,N
1577578955.4,286047002.4,N
1577578975.2,286047001.9,N
1577578995.1,286047002.7,N
1577578996.0,286047002.7,N
1577579015.8,286047002.5,N
1577579035.6,286047002.6,N
1577579055.5,286047002.8,N
1577579075.3,286047001.6,N
1577579095.1,286047002.5,N
1577579115.9,286047002.1,N
1577579135.7,286047000.1,N
1577579155.6,286047001.8,N
1577579175.4,286047002.1,N
1577579195.2,286047001.5,N
1577579215.1,286047005.3,Y
1577579216.0,286047005.3,P
1577579235.8,286047003.9,N
1577579255.7,286047003.7,N
1577579275.5,286046999.8,N
1577579295.3,286046998.5,N
1577579315.2,286047000.3,N
1577579335.0,286046998.2,N
1577579335.9,286046998.2,N
1577579355.8,286047000.2,N
1577579375.6,286047000.6,N
1577579395.4,286046998.7,N
1577579415.3,286046996.5,N
1577579435.1,286046996.7,N
1577579455.8,286046998.0,N
1577579475.7,286046994.9,N
1577579495.5,286046997.0,N
1577579515.4,286046998.0,N
1577579535.2,286046997.9,N
1577579555.0,286046999.1,N
1577579555.9,286046999.1,N
1577579575.8,286046997.8,N
1577579595.6,286046998.7,N
1577579615.4,286046996.6,N
1577579635.3,286046996.5,N
1577579655.1,286047000.7,N
1577579675.9,286046999.3,N
1577579695.7,286046996.9,N
1577579715.5,286046999.2,N
1577579735.4,286046996.8,N
1577579755.2,286046997.0,N
1577579775.0,286046996.7,N
1577579776.0,286046996.7,N
1577579795.8,286046994.9,N
1577579815.6,286046999.6,N
1577579835.5,286046999.3,N
1577579855.3,286046998.3,N
1577579875.1,286046998.8,N
1577579895.9,286046998.2,N
1577579915.7,286046998.2,N
1577579935.6,286047001.1,N
1577579955.4,286047000.6,N
1577579975.2,286046998.6,N
1577579995.1,286047001.0,N
1577579996.0,286047001.0,N
1577580015.8,286047002.4,N
1577580035.6,286047002.7,N
1577580055.5,286047000.4,N
1577580075.3,286047002.7,N
1577580095.2,286047000.7,N
1577580115.9,286047004.1,N
1577580135.7,286047002.3,N
1577580155.6,286046998.6,N
1577580175.4,286046998.7,N
1577580195.2,286046998.6,N
1577580215.1,286046998.7,N
1577580216.0,286046998.7,N
1577580235.8,286046998.4,N
1577580255.7,286046999.0,N
1577580275.5,286047000.7,N
1577580295.3,286046998.5,N
1577580315.2,286046998.2,N
1577580335.0,286046999.1,N
1577580335.9,286046999.1,N
1577580355.8,286047000.6,N
1577580375.6,286047001.1,N
1577580395.4,286047001.1,N
1577580415.3,286046998.5,N
1577580435.1,286047002.7,N
1577580455.8,286047002.3,N
1577580475.7,286047000.0,N
1577580495.5,286047000.3,N
1577580515.4,286047000.1,N
1577580535.2,286047000.1,N
1577580555.0,286047004.2,N
1577580555.9,286047004.2,N
1577580575.8,286046999.7,N
1577580595.6,286046998.5,N
1577580615.5,286046998.8,N
1577580635.3,286047000.6,N
1577580655.1,286046998.3,N
1577580675.9,286046998.5,N
1577580695.7,286046998.6,N
1577580715.5,286047001.1,N
1577580735.4,286047000.3,N
1577580755.2,286046999.9,N
1577580775.1,286046999.9,N
1577580776.0,286046999.9,N
1577580795.8,286046999.0,N
1577580815.6,286046999.6,N
1577580835.5,286047000.8,N
1577580855.3,286047001.2,N
1577580875.2,286046999.3,N
1577580895.9,286046997.8,N
1577580915.7,286046999.5,N
1577580935.6,286046997.6,N
1577580955.4,286046994.9,Y
1577580975.2,286046996.9,P
1577580995.1,286046994.9,P
1577580996.0,286046994.9,N
1577581015.8,286046998.9,N
1577581035.7,286046998.5,N
1577581055.5,286047000.8,N
1577581075.3,286047002.7,N
1577581095.2,286046999.0,N
1577581115.0,286047001.2,N
1577581115.9,286047001.2,N
1577581135.8,286047000.5,N
1577581155.6,286047002.0,N
1577581175.4,286047000.1,N
1577581195.3,286047000.3,N
